Regional Weather Roundup
Issued by NWS

Current Version | Previous Version | Text Only | Print | Product List | Glossary Off
Versions: 1 2 3 4 5 6 7 8 9 10 11 12 13 14 15 16 17 18 19 20 21 22 23 24 25 26 27

000
ASUS44 KJAN 122110
RWRMS

MISSISSIPPI HOURLY WEATHER ROUNDUP
NATIONAL WEATHER SERVICE JACKSON MS
300 PM CST TUE DEC 12 2017

NOTE: "FAIR: INDICATES FEW OR NO CLOUDS BELOW 12,000 FEET WITH NO
SIGNIFICANT WEATHER AND/OR OBSTRUCTIONS TO VISIBILITY.

MSZ001>002-007>008-010>013-018>021-025>028-034>036-122200-
NORTHWEST MISSISSIPPI

CITY           SKY/WX    TMP DP  RH WIND       PRES   REMARKS
BATESVILLE     FAIR      50  23  34 NW6G17    30.17R
CLARKSDALE     SUNNY     48  28  46 NW13      30.19S
CLEVELAND      FAIR      51  28  40 N14G21    30.18F
GREENWOOD      SUNNY     51  30  44 NW9       30.17R
GREENVILLE     SUNNY     52  22  30 NW14      30.18S
OLIVE BRANCH   MOSUNNY   46  21  36 N8        30.14R
OXFORD         FAIR      50  23  34 NW12G17   30.15S
TUNICA           N/A    N/A N/A N/A N14       30.20S
WINONA         FAIR      51  29  43 N8        30.14R
$$

MSZ003>006-009-014>017-022>024-029>033-037>039-122200-
NORTHEAST MISSISSIPPI

CITY           SKY/WX    TMP DP  RH WIND       PRES   REMARKS
ABERDEEN       FAIR      54  36  50 N13G22    30.11R
COLUMBUS AFB   SUNNY     54  32  43 NW13      30.08S
CORINTH        FAIR      48  19  32 NW15G24   30.11R
STARKVILLE     FAIR      54  28  37 NW10G16   30.11S
TUPELO         SUNNY     52  19  27 NW14G22   30.11R
$$

MSZ040-058-122200-
CENTRAL MISSISSIPPI

CITY           SKY/WX    TMP DP  RH WIND       PRES   REMARKS
JACKSON INTL   SUNNY     57  28  33 NW14      30.13R
JACKSON HAWKNS SUNNY     55  29  36 NW12G21   30.15R
MADISON        FAIR      52  28  40 NW9       30.14R
MERIDIAN KEY   SUNNY     59  32  36 N13G23    30.08F
MERIDIAN NAS   SUNNY     59  32  36 NW14      30.08S
RAYMOND        FAIR      55  28  35 N12       30.15R
VICKSBURG VKS  CLEAR     57  28  33 N10G18    30.18S
$$

MSZ059>079-122200-
SOUTH MISSISSIPPI

CITY           SKY/WX    TMP DP  RH WIND       PRES   REMARKS
HATTIESBURG    SUNNY     60  33  36 N9G17     30.09F
LAUREL         FAIR      58  32  37 NW13      30.09S
MCCOMB         SUNNY     60  31  33 NW14      30.13S
NATCHEZ        SUNNY     56  31  38 NW13      30.18S
PINE BELT      SUNNY     59  33  37 NW8G18    30.10F
$$

MSZ080>082-122200-
COASTAL MISSISSIPPI

CITY           SKY/WX    TMP DP  RH WIND       PRES   REMARKS
BAY ST LOUIS   SUNNY     61  36  39 N9        30.09S
BILOXI         SUNNY     61  35  38 N16       30.06F
PASCAGOULA     SUNNY     62  31  31 NW10G17   30.06F
GULFPORT       SUNNY     62  34  35 NW15      30.07F
$$

LAZ007>009-015>016-023>026-122200-
NORTHEAST LOUISIANA

CITY           SKY/WX    TMP DP  RH WIND       PRES   REMARKS
BASTROP        FAIR      58  19  22 NW9       30.20S
TALLULAH/VBURG SUNNY     57  31  37 N9        30.18S
VIDALIA          N/A    N/A N/A N/A MISG      30.18R
$$




USA.gov is the U.S. government's official web portal to all federal, state and local government web resources and services.